Tracking 29762 objects as of 8-Oct-2024
HD Live streaming from Space Station
objects crossing your sky now

JILIN-01 GAOFEN 3J

Track JILIN-01 GAOFEN 3J now!
10-day predictions


NORAD ID: 46462
Int'l Code: 2020-065J
Perigee: 469.6 km
Apogee: 481.9 km
Inclination: 97.3 °
Period: 94.0 minutes
Semi major axis: 6846 km
RCS: Unknown
Launch date: September 15, 2020
Source: People's Republic of China (PRC)
Launch site: Yellow Sea Launch Area, China (YSLA)
Your satellite tracking list
Your tracking list is empty




NASA's NSSDC Master Catalog

Two Line Element Set (TLE):
1 46462U 20065J   24281.86142852  .00053652  00000-0  17047-2 0  9990
2 46462  97.3250 325.1950 0008966 172.4008 187.7372 15.32413834224654
Source of the keplerian elements: AFSPC